FW3881 Weather Reports


Display with metric or nautical units.
time (UTC)temp
F
wind
direction
speed
MPH
gust
MPH
rain 1hr
in
rain 24hr
in
rain mn
in
humidity
%
barometer
mb
20260504050634 44 224 0.0 0.0 0.00 0.00 0.00 62 1015.8
20260504045903 44 224 0.0 0.0 0.00 0.00 0.00 62 1015.8
20260504045123 44 224 0.0 0.0 0.00 0.00 0.00 63 1015.8
20260504044550 44 224 0.0 0.0 0.00 0.00 0.00 62 1015.8
20260504044025 44 224 0.0 0.0 0.00 0.00 0.00 64 1015.8
20260504043502 44 224 0.0 0.0 0.00 0.00 0.00 63 1015.9
20260504043002 44 224 0.0 0.0 0.00 0.00 0.00 64 1015.8
20260504042651 44 224 0.0 0.0 0.00 0.00 0.00 63 1015.8
20260504042535 44 224 0.0 0.0 0.00 0.00 0.00 64 1015.8
20260504041444 44 224 0.0 0.0 0.00 0.00 0.00 60 1015.8
20260504040926 44 224 0.0 0.0 0.00 0.00 0.00 59 1015.8
20260504040644 45 224 0.0 0.0 0.00 0.00 0.00 61 1015.8
20260504035918 45 224 0.0 0.0 0.00 0.00 0.00 61 1015.7
20260504035345 45 224 0.0 0.0 0.00 0.00 0.00 59 1015.7
20260504034846 45 224 0.0 0.0 0.00 0.00 0.00 60 1015.6
20260504034603 45 224 0.0 0.0 0.00 0.00 0.00 60 1015.7
20260504033849 45 224 0.0 0.0 0.00 0.00 0.00 59 1015.7
20260504033325 44 224 0.0 0.0 0.00 0.00 0.00 59 1015.7
20260504032818 44 224 0.0 0.0 0.00 0.00 0.00 59 1015.7
20260504032506 44 224 0.0 0.0 0.00 0.00 0.00 60 1015.7
20260504031723 44 224 0.0 0.0 0.00 0.00 0.00 59 1015.7
20260504031155 45 224 0.0 0.0 0.00 0.00 0.00 61 1015.7
20260504030653 45 224 0.0 0.0 0.00 0.00 0.00 60 1015.6
20260504030125 45 224 0.0 0.0 0.00 0.00 0.00 57 1015.7
20260504025625 45 102 0.0 0.0 0.00 0.00 0.00 59 1015.8
20260504025054 45 102 0.0 0.0 0.00 0.00 0.00 58 1015.8
20260504024554 45 102 0.0 0.0 0.00 0.00 0.00 59 1015.7
20260504024309 45 102 0.0 0.0 0.00 0.00 0.00 57 1015.8
20260504023548 45 102 0.0 0.0 0.00 0.00 0.00 57 1015.7
20260504023020 45 102 0.0 0.0 0.00 0.00 0.00 56 1015.8
20260504022517 45 102 0.0 0.0 0.00 0.00 0.00 57 1015.7
20260504021949 45 102 0.0 0.0 0.00 0.00 0.00 56 1015.7
20260504021444 45 102 0.0 0.0 0.00 0.00 0.00 59 1015.7
20260504020943 45 102 0.0 0.0 0.00 0.00 0.00 58 1015.6
20260504020438 45 102 0.0 0.0 0.00 0.00 0.00 57 1015.7
20260504015930 45 102 0.0 0.0 0.00 0.00 0.00 60 1015.6
20260504015403 45 102 0.0 0.0 0.00 0.00 0.00 59 1015.6
20260504014848 45 102 0.0 0.0 0.00 0.00 0.00 59 1015.5
20260504014349 46 102 0.0 0.0 0.00 0.00 0.00 60 1015.5
20260504013818 46 102 0.0 0.0 0.00 0.00 0.00 59 1015.5
20260504013317 46 102 0.0 0.0 0.00 0.00 0.00 58 1015.5
20260504013011 46 102 0.0 0.0 0.00 0.00 0.00 59 1015.3
20260504012505 46 102 0.0 0.0 0.00 0.00 0.00 59 1015.3
20260504012040 46 102 0.0 0.0 0.00 0.00 0.00 58 1015.3
20260504011949 46 102 0.0 0.0 0.00 0.00 0.00 59 1015.2
20260504010734 46 102 0.0 0.0 0.00 0.00 0.00 58 1015.2
20260504010429 47 102 0.0 0.0 0.00 0.00 0.00 55 1015.2
20260504005638 47 102 0.0 0.0 0.00 0.00 0.00 56 1015.3
20260504005138 47 102 0.0 0.0 0.00 0.00 0.00 53 1015.2
20260504004609 47 102 0.0 0.0 0.00 0.00 0.00 56 1015.2
20260504004330 47 104 0.0 0.0 0.00 0.00 0.00 54 1015.2
20260504003823 47 103 0.0 0.0 0.00 0.00 0.00 53 1015.2
20260504003103 47 210 0.0 0.0 0.00 0.00 0.00 54 1015.2
20260504002543 48 210 0.0 0.0 0.00 0.00 0.00 54 1015.1
20260504002045 48 202 0.0 0.0 0.00 0.00 0.00 53 1015.1
20260504001542 48 202 0.0 0.0 0.00 0.00 0.00 53 1015.0
20260504001045 49 235 0.0 0.0 0.00 0.00 0.00 53 1014.9
20260504000515 49 235 0.0 0.0 0.00 0.00 0.00 51 1014.9
20260504000454 49 237 0.0 0.0 0.00 0.00 0.00 50 1014.9
20260503235446 50 237 0.0 0.0 0.00 0.00 0.00 49 1014.9
20260503234921 51 237 1.0 3.0 0.00 0.00 0.00 50 1014.8
20260503234358 51 191 1.0 3.0 0.00 0.00 0.00 50 1014.8
20260503233857 51 277 1.0 5.0 0.00 0.00 0.00 47 1014.7
20260503233357 52 197 0.0 5.0 0.00 0.00 0.00 44 1014.5
20260503232843 52 172 0.0 1.0 0.00 0.00 0.00 46 1014.5
20260503232317 52 120 0.0 0.0 0.00 0.00 0.00 44 1014.5
20260503231748 53 270 0.0 5.0 0.00 0.00 0.00 44 1014.7
20260503231245 53 168 0.0 5.0 0.00 0.00 0.00 42 1014.5
20260503230723 53 38 0.0 3.0 0.00 0.00 0.00 42 1014.3
20260503230151 53 190 1.0 3.0 0.00 0.00 0.00 43 1014.4
20260503225646 53 177 1.0 8.0 0.00 0.00 0.00 41 1014.3
20260503225121 54 93 1.0 3.0 0.00 0.00 0.00 41 1014.3
20260503224611 54 324 1.0 6.0 0.00 0.00 0.00 41 1014.3
20260503224043 54 77 1.0 6.0 0.00 0.00 0.00 40 1014.3
20260503223538 54 327 1.0 4.0 0.00 0.00 0.00 40 1014.3
20260503223013 54 158 1.0 7.0 0.00 0.00 0.00 39 1014.4
20260503222510 54 250 1.0 7.0 0.00 0.00 0.00 40 1014.5
20260503222009 54 256 1.0 9.0 0.00 0.00 0.00 40 1014.4
20260503221440 54 300 1.0 9.0 0.00 0.00 0.00 39 1014.4
20260503220939 54 183 1.0 5.0 0.00 0.00 0.00 40 1014.4
20260503220435 54 196 2.0 9.0 0.00 0.00 0.00 41 1014.4
20260503220416 54 356 3.0 9.0 0.00 0.00 0.00 40 1014.5
20260503215404 55 216 2.0 7.0 0.00 0.00 0.00 38 1014.5
20260503215128 55 182 1.0 7.0 0.00 0.00 0.00 41 1014.4
20260503214336 55 105 1.0 5.0 0.00 0.00 0.00 40 1014.5
20260503213812 55 268 2.0 13.0 0.00 0.00 0.00 40 1014.7
20260503213252 55 86 2.0 13.0 0.00 0.00 0.00 39 1014.4
20260503212751 55 78 1.0 6.0 0.00 0.00 0.00 39 1014.5
20260503212222 55 104 1.0 6.0 0.00 0.00 0.00 39 1014.5
20260503211943 56 1 1.0 6.0 0.00 0.00 0.00 38 1014.4
20260503211200 56 160 1.0 7.0 0.00 0.00 0.00 40 1014.4
20260503210844 56 310 2.0 8.0 0.00 0.00 0.00 38 1014.4
20260503210056 56 74 3.0 8.0 0.00 0.00 0.00 42 1014.3
20260503205819 56 165 2.0 10.0 0.00 0.00 0.00 37 1014.3
20260503205024 56 171 2.0 10.0 0.00 0.00 0.00 36 1014.4
20260503204527 56 232 3.0 10.0 0.00 0.00 0.00 38 1014.3
20260503203954 56 15 2.0 8.0 0.00 0.00 0.00 40 1014.3
20260503203453 57 176 2.0 7.0 0.00 0.00 0.00 38 1014.4
20260503202925 56 32 1.0 4.0 0.00 0.00 0.00 38 1014.5
20260503202401 56 24 2.0 7.0 0.00 0.00 0.00 38 1014.7
20260503202059 56 102 1.0 7.0 0.00 0.00 0.00 36 1014.7
20260503201337 57 177 2.0 6.0 0.00 0.00 0.00 36 1014.5
20260503201035 56 125 2.0 8.0 0.00 0.00 0.00 40 1014.8
20260503200258 56 217 3.0 8.0 0.00 0.00 0.00 40 1014.8
20260503195756 57 356 2.0 8.0 0.00 0.00 0.00 35 1014.9
20260503195253 56 242 1.0 6.0 0.00 0.00 0.00 38 1014.9
20260503194751 56 41 2.0 5.0 0.00 0.00 0.00 37 1015.1
20260503194446 55 292 2.0 9.0 0.00 0.00 0.00 38 1015.1
20260503193948 57 140 2.0 9.0 0.00 0.00 0.00 42 1015.1
20260503193217 57 67 2.0 6.0 0.00 0.00 0.00 40 1015.1
20260503192714 56 91 1.0 7.0 0.00 0.00 0.00 41 1015.2
20260503192213 56 69 2.0 7.0 0.00 0.00 0.00 39 1015.3
20260503192201 56 93 2.0 14.0 0.00 0.00 0.00 37 1015.4
20260503191652 56 76 2.0 14.0 0.00 0.00 0.00 41 1015.3
20260503190705 56 75 3.0 14.0 0.00 0.00 0.00 38 1015.4
20260503190142 56 302 3.0 14.0 0.00 0.00 0.00 37 1015.4
20260503190058 56 351 3.0 13.0 0.00 0.00 0.00 38 1015.4
20260503185052 55 10 3.0 13.0 0.00 0.00 0.00 37 1015.5
20260503184538 55 167 2.0 7.0 0.00 0.00 0.00 37 1015.5
20260503184038 55 60 2.0 7.0 0.00 0.00 0.00 35 1015.5
20260503183512 55 190 2.0 11.0 0.00 0.00 0.00 36 1015.7
20260503183205 56 173 2.0 11.0 0.00 0.00 0.00 38 1015.7
20260503182709 54 171 1.0 8.0 0.00 0.00 0.00 40 1015.7
20260503181923 54 319 2.0 8.0 0.00 0.00 0.00 36 1015.6
20260503181421 54 52 2.0 6.0 0.00 0.00 0.00 40 1015.7
20260503180919 53 57 2.0 9.0 0.00 0.00 0.00 40 1015.7
20260503180354 52 21 2.0 9.0 0.00 0.00 0.00 45 1015.7
20260503175826 51 69 2.0 7.0 0.00 0.00 0.00 43 1015.9
20260503175321 51 5 2.0 8.0 0.00 0.00 0.00 41 1015.8
20260503175254 52 291 1.0 8.0 0.00 0.00 0.00 41 1015.8
20260503174521 53 275 2.0 9.0 0.00 0.00 0.00 42 1016.0
20260503173803 54 327 3.0 9.0 0.00 0.00 0.00 40 1016.0
20260503173305 53 264 3.0 10.0 0.00 0.00 0.00 43 1015.8
20260503172758 53 270 3.0 10.0 0.00 0.00 0.00 40 1015.9
20260503172300 53 250 3.0 9.0 0.00 0.00 0.00 43 1016.0
20260503171759 53 224 3.0 8.0 0.00 0.00 0.00 40 1016.0
20260503171300 53 37 2.0 7.0 0.00 0.00 0.00 44 1015.9
20260503170810 52 106 2.0 10.0 0.00 0.00 0.00 46 1016.0
20260503170241 51 21 2.0 10.0 0.00 0.00 0.00 45 1016.0
20260503150315 48 305 1.0 4.0 0.00 0.00 0.00 52 1016.9
20260503140106 45 304 2.0 5.0 0.00 0.00 0.00 59 1016.8
20260503131318 43 325 1.0 7.0 0.00 0.00 0.00 63 1016.7
20260503130753 42 78 1.0 7.0 0.00 0.00 0.00 63 1016.8
20260503130223 42 5 1.0 5.0 0.00 0.00 0.00 63 1016.8
20260503110747 34 129 0.0 3.0 0.00 0.00 0.00 78 1015.7
20260503110223 33 25 0.0 4.0 0.00 0.00 0.00 79 1015.5
20260503090142 34 260 1.0 7.0 0.00 0.00 0.00 78 1014.0
20260503090121 34 271 1.0 7.0 0.00 0.00 0.00 78 1014.1
20260503081442 35 167 1.0 3.0 0.00 0.00 0.00 78 1014.2
20260503080943 35 203 1.0 5.0 0.00 0.00 0.00 78 1014.2
20260503080441 35 210 0.0 5.0 0.00 0.00 0.00 79 1014.3
20260503072823 36 121 1.0 4.0 0.00 0.00 0.00 79 1014.0
20260503072317 36 206 1.0 5.0 0.00 0.00 0.00 78 1013.8
20260503071815 36 335 0.0 5.0 0.00 0.00 0.00 79 1013.9
20260503071311 36 31 1.0 5.0 0.00 0.00 0.00 79 1013.9
20260503070811 36 162 1.0 5.0 0.00 0.00 0.00 79 1013.8
20260503070242 36 142 1.0 4.0 0.00 0.00 0.00 80 1013.8
20260503060335 37 123 0.0 3.0 0.00 0.00 0.00 80 1013.7
20260503055053 36 29 0.0 3.0 0.00 0.00 0.00 81 1013.8
20260503054523 36 48 0.0 3.0 0.00 0.00 0.00 81 1013.7
20260503054026 36 32 0.0 3.0 0.00 0.00 0.00 81 1013.7
20260503053457 36 25 0.0 3.0 0.00 0.00 0.00 80 1013.7
20260503052958 36 309 0.0 0.0 0.00 0.00 0.00 80 1013.8
20260503052654 36 291 0.0 3.0 0.00 0.00 0.00 80 1013.8
20260503051908 36 312 0.0 3.0 0.00 0.00 0.00 79 1013.9
20260503051404 36 317 0.0 2.0 0.00 0.00 0.00 79 1013.9